STARLINK-34237 (64194 NORAD) Tracking and Keplerian Element Data

This shows tracking and keplerian element data for the satellite.

Feedback or suggestion? Click here.




ElementValue
Catalog64194
NameSTARLINK-34237
Epoch Orbit3274
Epoch Day353.4642613
Epoch Year2025
RAAN103.6684
Inclination53.1585
Eccentricity9.31E-05
Argument of Perigee74.1553
Mean Anonmoly285.9551
Mean Motion15.30193244
Decay Rate0.00018246
L11 64194U 25113AA 25353.46426130 .00018246 00000+0 62677-3 0 9991
L22 64194 53.1585 103.6684 0000931 74.1553 285.9551 15.30193244 32742



Live tracking and technical data element details for STARLINK-34237 (NORAD 64194). STARLINK-34237 can be tracked NOW for your location showing map with azimuth and elevation plus other details from your city location.







IsCatalogInMostPopularTable: catalog: 64194, numindb: 12
Update: records affected: 1



GetName: 64194 STARLINK-34237

Hit Count: updated at: Mon, 11 May 2026 11:49:30 GMT